Regional Weather Roundup
Issued by NWS

Home | Current Version | Previous Version | Graphics & Text | Print | Product List | Glossary On
Versions: 1 2 3 4 5 6 7 8 9 10 11 12 13 14 15 16 17 18 19 20 21 22 23 24 25 26 27 28 29 30 31 32 33 34 35 36 37 38 39 40 41 42 43 44 45 46 47 48 49 50
000
ASUS43 KLSX 060359
RWRMO

WEATHER SUMMARY FOR MISSOURI
NATIONAL WEATHER SERVICE SPRINGFIELD MO
1100 PM CDT TUE MAY 05 2015

NOTE: "FAIR" INDICATES FEW OR NO CLOUDS BELOW 12,000 FEET WITH NO
       SIGNIFICANT WEATHER AND/OR OBSTRUCTIONS TO VISIBILITY.
       CURRENT SKY AND/OR WEATHER CONDITIONS ARE NOT AVAILABLE FOR
       CHILLICOTHE AND FARMINGTON.

MOZ001>031-035>038-043-044-053-054-060500-
...NORTHERN AND WESTERN MISSOURI...

CITY           SKY/WX    TMP DP  RH WIND       PRES   REMARKS
KANSAS CTY INT CLOUDY    65  62  90 E9        30.03F
KANSAS C DTWN  CLOUDY    67  64  90 E6        30.03S
LEE`S SUMMIT   CLOUDY    70  61  73 SE9       30.05S
ST JOSEPH      CLOUDY    65  61  87 E8        30.03F
CHILLICOTHE      N/A     69  60  73 SE3       30.08R
KIRKSVILLE     CLOUDY    69  60  73 SE8       30.10S

$$
MOZ066>068-077>081-088>096-101>105-060500-
...SOUTHWEST MISSOURI...

CITY           SKY/WX    TMP DP  RH WIND       PRES   REMARKS
SPRINGFIELD    MOCLDY    70  53  54 SE14      30.08S
JOPLIN         CLOUDY    70  55  59 SE9       30.03S

$$
MOZ032>034-039>042-045>050-055>058-069>072-060500-
...CENTRAL MISSOURI...

CITY           SKY/WX    TMP DP  RH WIND       PRES   REMARKS
COLUMBIA       PTCLDY    67  61  81 SE6       30.10S
JEFFERSON CITY PTCLDY    65  60  84 SE8       30.09S
ROLLA          PTCLDY    66  55  67 SE8       30.11S
SEDALIA        MOCLDY    68  59  73 SE7       30.09S
OSAGE BEACH    PTCLDY    70  54  56 SE3       30.10S

$$
MOZ051-052-059>065-060500-
...EAST CENTRAL MISSOURI...

CITY           SKY/WX    TMP DP  RH WIND       PRES   REMARKS
ST LOUIS INTL  PTCLDY    74  58  57 SE7       30.14S
SPIRIT OF STL  CLEAR     68  58  70 SE5       30.12S
ST CHARLES     MOCLDY    67  54  63 E6        30.12S

$$
MOZ072>076-082>087-097>100-106>115-060500-
...SOUTH CENTRAL AND SOUTHEAST MISSOURI...

CITY           SKY/WX    TMP DP  RH WIND       PRES   REMARKS
CAPE GIRARDEAU CLEAR     65  58  78 S6        30.15S
FARMINGTON     CLEAR     63  55  77 CALM      30.20R
POPLAR BLUFF   CLEAR     64  56  75 CALM      30.14R
WEST PLAINS    CLEAR     65  52  62 SE3       30.15S

$$



USA.gov is the U.S. government's official web portal to all federal, state and local government web resources and services.